Regional Weather Roundup
Issued by NWS Portland, ME

Current Version | Previous Version | Text Only | Print | Product List | Glossary Off
Versions: 1 2 3 4 5 6 7 8 9 10 11 12 13 14 15 16 17 18 19 20 21 22 23 24 25 26 27 28 29 30 31 32 33 34 35 36 37 38 39 40 41 42 43 44 45 46 47 48 49 50
856 ASUS41 KGYX 171310 RWRGYX WEATHER ROUNDUP FOR MAINE AND NEW HAMPSHIRE NATIONAL WEATHER SERVICE GRAY ME 900 AM EDT THU AUG 17 2017 MEZ002-005-006-010-012-015-018-020-021-024-026-027-029-171400- MAINE CITY SKY/WX TMP DP RH WIND PRES REMARKS PORTLAND CLOUDY 66 48 52 SW6 30.02S SANFORD MOSUNNY 66 51 58 VRB3 30.05S BAR HARBOR SUNNY 62 49 62 VRB7 29.96F WISCASSET SUNNY 66 50 56 VRB5 30.02S ROCKLAND SUNNY 65 51 60 W8 29.99S FRYEBURG CLOUDY 65 52 62 W6 30.02S LEWISTONAUBURN CLOUDY 64 51 62 VRB6 30.01S AUGUSTA SUNNY 65 48 54 W9 30.00F WATERVILLE SUNNY 64 52 64 VRB5 29.97R BANGOR MOSUNNY 64 49 57 W7 29.97S GREENVILLE N/A 57 46 66 NW10G20 29.95R MILLINOCKET SUNNY 61 44 53 W12G25 29.92S HOULTON SUNNY 63 45 51 W14 29.83F PRESQUE ISLE SUNNY 62 45 53 NW16G22 29.83F FRENCHVILLE CLOUDY 56 43 61 NW20G25 29.82R CARIBOU PTSUNNY 62 45 53 NW14G22 29.82R $$ NHZ002-005-008-009-011-012-014-171400- NEW HAMPSHIRE CITY SKY/WX TMP DP RH WIND PRES REMARKS PORTSMOUTH PTSUNNY 66 51 58 SW5 30.04S ROCHESTER CLOUDY 68 50 52 VRB3 30.04S NASHUA CLOUDY 66 52 60 CALM 30.08S MANCHESTER CLOUDY 62 49 62 S3 30.06R CONCORD CLOUDY 62 53 72 CALM 30.07S LACONIA MOSUNNY 63 52 67 W12 30.06S PLYMOUTH FAIR 55 50 85 CALM 30.07S BERLIN SUNNY 63 47 55 VRB7 30.04R WHITEFIELD MOSUNNY 57 50 77 CALM 30.07S JAFFREY CLOUDY 63 53 70 CALM 30.10S KEENE N/A N/A N/A N/A MISG N/A LEBANON CLOUDY 56 52 86 NW3 30.08F MT WASHINGTON FOG 39 39 100 NW56G68 N/A VSB 0 $$ VTZ005-007-008-171400- VERMONT CITY SKY/WX TMP DP RH WIND PRES REMARKS ST JOHNSBURY N/A 55 51 86 MISG 30.06R MONTPELIER CLOUDY 59 55 87 CALM 30.12R BURLINGTON PTSUNNY 63 53 70 VRB3 30.07S $$ MAZ007-012-024-CTZ003-RIZ002-NYZ038-NYZ072-171400- SOUTHERN NEW ENGLAND AND NY CITY SKY/WX TMP DP RH WIND PRES REMARKS BOSTON PTSUNNY 70 48 45 NW8 30.07S WORCESTER CLOUDY 66 45 46 N7 30.10R NANTUCKET MOSUNNY 71 58 63 NE7 30.06S PROVIDENCE PTSUNNY 71 51 49 CALM 30.08F HARTFORD PTSUNNY 67 55 65 NE3 30.09S ALBANY PTSUNNY 63 53 70 CALM 30.11S NEW YORK CITY PTSUNNY 72 60 66 NE12 30.07S $$ ANZ081-ANZ082-ANZ150-NHZ014-MEZ023>029-171400- COASTAL MARINE OBSERVATIONS STATION/POSITION TIME TEMP WIND PRES WAVE AIR SEA DIR/SP/G HT/PER (UTC) (F) (DEG/KT/KT) (MB) (FT/S) MOUNT DESERT ROC 1200 57 1015.2R MATINICUS ROCK 1200 60 270/ 17/ 17 1015.4R ISLE OF SHOALS 1200 59 250/ 10/ 11 1017.4R JEFFREYS LEDGE 1206 66 N/A 3/11 CASHES LEDGE BUO 1150 69 66 1016.3 3/11 GEORGES BANK BUO 1150 64 65 1016.2 4/10 $$ .............KEY.............. WCI - WIND CHILL TC - TEMPERATURE IN CELSIUS VSB - VISIBILITY IN MILES HX - HEAT INDEX FAIR- INDICATES FEW OR NO CLOUDS BELOW 12,000 FT, WITH NO SIGNIFICANT WEATHER AND/OR OBSTRUCTIONS TO VISIBILITY.

USA.gov is the U.S. government's official web portal to all federal, state and local government web resources and services.